This demonstration page uses our WeatherBlox Daily Observations layout. Learn more.

Left ArrowRight Arrow

41.12389, -100.76542

Hourly Observations for December 1, 2016

Temp ( °F °C ) Dew Point ( °F °C ) Humidity (%) Winds ( mph kmh ) Pressure ( in mb ) Visibility ( mi km ) Precip ( " mm )
12:53 am 00:53 Clear 18 -7.8 14 -10 84 84 WNW 5 7 30.04 1017 10 16 0.00 0.00
1:53 am 01:53 Clear 15 -9.4 12 -11.1 88 88 NW 3 6 30.04 1017 10 16 0.00 0.00
2:53 am 02:53 Clear 14 -10 10 -12.2 84 84 Calm 30.04 1017 10 16 0.00 0.00
3:53 am 03:53 Clear 15 -9.4 12 -11.1 88 88 NNW 3 6 30.03 1017 10 16 0.00 0.00
4:53 am 04:53 Clear 14 -10 10 -12.2 84 84 NW 7 11 30.04 1017 10 16 0.00 0.00
5:53 am 05:53 Clear 13 -10.6 9 -12.8 84 84 WNW 6 9 30.06 1018 10 16 0.00 0.00
6:53 am 06:53 Clear 13 -10.6 10 -12.2 88 88 NW 7 11 30.09 1019 10 16 0.00 0.00
7:53 am 07:53 Sunny 13 -10.6 9 -12.8 84 84 NW 6 9 30.09 1019 10 16 0.00 0.00
8:53 am 08:53 Sunny 20 -6.7 15 -9.4 81 81 NW 6 9 30.09 1019 10 16 0.00 0.00
9:53 am 09:53 Sunny 27 -2.8 19 -7.2 72 72 NW 8 13 30.08 1019 10 16 0.00 0.00
10:53 am 10:53 Sunny 32 0 21 -6.1 64 64 WNW 8 13 30.09 1019 10 16 0.00 0.00
11:53 am 11:53 Sunny 36 2.2 20 -6.7 52 52 VRB 5 7 30.06 1018 10 16 0.00 0.00
12:53 pm 12:53 Sunny 39 3.9 20 -6.7 46 46 WNW 7 11 30.04 1017 10 16 0.00 0.00
1:53 pm 13:53 Sunny 43 6.1 18 -7.8 37 37 WSW 5 7 30.02 1017 10 16 0.00 0.00
2:53 pm 14:53 Sunny 45 7.2 16 -8.9 31 31 VRB 5 7 30.01 1016 10 16 0.00 0.00
3:53 pm 15:53 Sunny 44 6.7 16 -8.9 32 32 WSW 3 6 30.01 1016 10 16 0.00 0.00
4:53 pm 16:53 Sunny 41 5 15 -9.4 35 35 W 6 9 30.02 1017 10 16 0.00 0.00
5:53 pm 17:53 Clear 30 -1.1 16 -8.9 56 56 Calm 30.06 1018 10 16 0.00 0.00
6:53 pm 18:53 Clear 26 -3.3 16 -8.9 66 66 NW 3 6 30.08 1019 10 16 0.00 0.00
7:53 pm 19:53 Clear 24 -4.4 15 -9.4 68 68 Calm 30.11 1020 10 16 0.00 0.00
8:53 pm 20:53 Clear 21 -6.1 13 -10.6 71 71 Calm 30.11 1020 10 16 0.00 0.00
9:53 pm 21:53 Clear 20 -6.7 13 -10.6 74 74 NW 3 6 30.12 1020 10 16 0.00 0.00
10:53 pm 22:53 Mostly Clear 19 -7.2 12 -11.1 74 74 Calm 30.13 1020 10 16 0.00 0.00
11:53 pm 23:53 Cloudy 21 -6.1 15 -9.4 78 78 Calm 30.14 1021 10 16 0.00 0.00

Powered by AerisWeather